DL4NBA-1 Weather Reports


Display with metric or nautical units.
time (UTC)temp
F
wind
direction
speed
MPH
gust
MPH
rain 1hr
in
rain 24hr
in
rain mn
in
humidity
%
barometer
mb
20260904222030 69 309 21.0 20.0 0.00 0.00 0.00
20260904221532 69 329 13.0 12.0 0.00 0.00 0.00
20260904221033 74 302 13.0 9.0 0.00 0.00 0.00
20260904220534 74 269 10.0 15.0 0.00 0.00 0.00
20260904220033 74 250 11.0 11.0 0.00 0.00 0.00
20260904215534 74 273 8.0 7.0 0.00 0.00 0.00
20260904215035 74 281 7.0 6.0 0.00 0.00 0.00
20260904214536 74 253 6.0 6.0 0.00 0.00 0.00
20260904213536 73 225 5.0 2.0 0.00 0.00 0.00
20260904213037 74 297 5.0 4.0 0.00 0.00 0.00
20260904212040 74 270 6.0 5.0 0.00 0.00 0.00
20260904211541 74 256 4.0 2.0 0.00 0.00 0.00
20260904210042 74 231 3.0 3.0 0.00 0.00 0.00
20260904205543 75 219 4.0 7.0 0.00 0.00 0.00
20260904205044 74 208 5.0 5.0 0.00 0.00 0.00
20260904204542 75 239 5.0 4.0 0.00 0.00 0.00
20260904204043 74 218 4.0 4.0 0.00 0.00 0.00
20260904203544 75 198 4.0 3.0 0.00 0.00 0.00
20260904203045 75 229 4.0 8.0 0.00 0.00 0.00
20260904202044 75 212 3.0 6.0 0.00 0.00 0.00
20260904201545 76 211 3.0 4.0 0.00 0.00 0.00
20260904201047 76 219 3.0 9.0 0.00 0.00 0.00
20260904194550 77 245 8.0 6.0 0.00 0.00 0.00
20260904194051 77 249 6.0 12.0 0.00 0.00 0.00
20260904192551 77 240 7.0 7.0 0.00 0.00 0.00
20260904191551 77 222 8.0 9.0 0.00 0.00 0.00
20260904191052 77 228 5.0 6.0 0.00 0.00 0.00
20260904190052 77 159 6.0 12.0 0.00 0.00 0.00
20260904185553 77 235 4.0 8.0 0.00 0.00 0.00
20260904185054 77 242 5.0 10.0 0.00 0.00 0.00
20260904184555 78 238 7.0 6.0 0.00 0.00 0.00
20260904184053 78 238 5.0 10.0 0.00 0.00 0.00
20260904183055 78 211 7.0 8.0 0.00 0.00 0.00
20260904182556 78 214 7.0 8.0 0.00 0.00 0.00
20260904182058 79 208 5.0 7.0 0.00 0.00 0.00
20260904181555 78 180 6.0 8.0 0.00 0.00 0.00
20260904181056 79 232 9.0 8.0 0.00 0.00 0.00
20260904180557 79 242 11.0 9.0 0.00 0.00 0.00
20260904180058 80 243 10.0 8.0 0.00 0.00 0.00
20260904175559 79 233 7.0 7.0 0.00 0.00 0.00
20260904175057 80 245 5.0 9.0 0.00 0.00 0.00
20260904174558 80 210 6.0 3.0 0.00 0.00 0.00
20260904173600 80 271 7.0 6.0 0.00 0.00 0.00
20260904173101 80 229 8.0 6.0 0.00 0.00 0.00
20260904172559 83 232 9.0 6.0 0.00 0.00 0.00
20260904172100 83 233 7.0 6.0 0.00 0.00 0.00
20260904171601 83 205 6.0 5.0 0.00 0.00 0.00
20260904171102 82 200 12.0 8.0 0.00 0.00 0.00
20260904170100 83 195 9.0 13.0 0.00 0.00 0.00
20260904165102 86 231 12.0 6.0 0.00 0.00 0.00
20260904163601 83 255 10.0 8.0 0.00 0.00 0.00
20260904163102 84 248 8.0 7.0 0.00 0.00 0.00
20260904162602 83 281 11.0 12.0 0.00 0.00 0.00
20260904162103 84 236 7.0 6.0 0.00 0.00 0.00
20260904161604 84 207 12.0 10.0 0.00 0.00 0.00
20260904155603 84 197 12.0 13.0 0.00 0.00 0.00
20260904154601 84 208 13.0 13.0 0.00 0.00 0.00
20260904154102 85 236 13.0 6.0 0.00 0.00 0.00
20260904153103 85 226 11.0 9.0 0.00 0.00 0.00
20260904152603 86 273 5.0 7.0 0.00 0.00 0.00
20260904151602 85 257 13.0 11.0 0.00 0.00 0.00
20260904145601 86 166 10.0 10.0 0.00 0.00 0.00
20260904144603 85 215 12.0 18.0 0.00 0.00 0.00
20260904144104 86 201 11.0 11.0 0.00 0.00 0.00
20260904143604 86 215 11.0 17.0 0.00 0.00 0.00
20260904143102 86 224 9.0 8.0 0.00 0.00 0.00
20260904142602 85 239 7.0 6.0 0.00 0.00 0.00
20260904141604 86 208 11.0 10.0 0.00 0.00 0.00
20260904141105 84 219 12.0 10.0 0.00 0.00 0.00
20260904135605 84 158 12.0 2.0 0.00 0.00 0.00
20260904135106 84 243 8.0 9.0 0.00 0.00 0.00
20260904134607 84 183 11.0 5.0 0.00 0.00 0.00
20260904134105 84 225 10.0 9.0 0.00 0.00 0.00
20260904133606 84 221 11.0 7.0 0.00 0.00 0.00
20260904133107 84 218 9.0 15.0 0.00 0.00 0.00
20260904132608 84 203 9.0 13.0 0.00 0.00 0.00
20260904132109 84 311 8.0 8.0 0.00 0.00 0.00
20260904131606 83 226 13.0 12.0 0.00 0.00 0.00
20260904131107 84 197 12.0 12.0 0.00 0.00 0.00
20260904130109 85 232 8.0 11.0 0.00 0.00 0.00
20260904125108 83 149 9.0 12.0 0.00 0.00 0.00
20260904123612 84 229 11.0 9.0 0.00 0.00 0.00
20260904123113 83 215 11.0 16.0 0.00 0.00 0.00
20260904122112 84 183 9.0 10.0 0.00 0.00 0.00
20260904121114 83 203 11.0 12.0 0.00 0.00 0.00
20260904120615 83 238 12.0 19.0 0.00 0.00 0.00
20260904120112 83 190 11.0 6.0 0.00 0.00 0.00
20260904115614 83 219 12.0 9.0 0.00 0.00 0.00
20260904115115 83 214 11.0 9.0 0.00 0.00 0.00
20260904114616 82 235 10.0 14.0 0.00 0.00 0.00
20260904114117 82 141 11.0 9.0 0.00 0.00 0.00
20260904113116 82 179 8.0 7.0 0.00 0.00 0.00
20260904112618 82 225 9.0 7.0 0.00 0.00 0.00
20260904112119 83 207 8.0 11.0 0.00 0.00 0.00
20260904111620 82 236 12.0 16.0 0.00 0.00 0.00
20260904111118 81 231 7.0 7.0 0.00 0.00 0.00
20260904110121 81 169 5.0 10.0 0.00 0.00 0.00
20260904105622 81 203 13.0 10.0 0.00 0.00 0.00
20260904105123 81 176 13.0 13.0 0.00 0.00 0.00
20260904103624 82 191 4.0 4.0 0.00 0.00 0.00
20260904103125 81 239 10.0 9.0 0.00 0.00 0.00
20260904102627 81 166 12.0 10.0 0.00 0.00 0.00
20260904102124 79 218 9.0 10.0 0.00 0.00 0.00
20260904101625 79 233 7.0 8.0 0.00 0.00 0.00
20260904101127 81 211 8.0 11.0 0.00 0.00 0.00
20260904100628 81 162 8.0 15.0 0.00 0.00 0.00
20260904095627 79 174 8.0 6.0 0.00 0.00 0.00
20260904095128 79 229 12.0 14.0 0.00 0.00 0.00
20260904094130 78 217 11.0 9.0 0.00 0.00 0.00
20260904093936 79 186 10.0 9.0 0.00 0.00 0.00
20260904093632 79 186 10.0 9.0 0.00 0.00 0.00
20260904093130 80 224 10.0 9.0 0.00 0.00 0.00
20260904092258 78 208 13.0 12.0 0.00 0.00 0.00
20260904092133 78 208 13.0 12.0 0.00 0.00 0.00
20260904091634 78 217 9.0 7.0 0.00 0.00 0.00
20260904091135 79 177 8.0 8.0 0.00 0.00 0.00
20260904090135 78 242 9.0 14.0 0.00 0.00 0.00
20260904085637 77 158 8.0 10.0 0.00 0.00 0.00
20260904085138 77 233 11.0 13.0 0.00 0.00 0.00
20260904084639 77 191 9.0 10.0 0.00 0.00 0.00
20260904084137 76 214 10.0 11.0 0.00 0.00 0.00
20260904083139 76 180 9.0 7.0 0.00 0.00 0.00
20260904082641 76 165 7.0 6.0 0.00 0.00 0.00
20260904082142 75 203 9.0 2.0 0.00 0.00 0.00
20260904081142 75 187 8.0 6.0 0.00 0.00 0.00
20260904080644 74 200 9.0 12.0 0.00 0.00 0.00
20260904080004 74 210 7.0 5.0 0.00 0.00 0.00
20260904075646 74 210 7.0 5.0 0.00 0.00 0.00
20260904074646 72 184 7.0 8.0 0.00 0.00 0.00
20260904073648 71 208 8.0 9.0 0.00 0.00 0.00
20260904073150 71 242 3.0 6.0 0.00 0.00 0.00
20260904072648 71 215 6.0 4.0 0.00 0.00 0.00
20260904071649 70 242 6.0 3.0 0.00 0.00 0.00
20260904071151 69 194 5.0 6.0 0.00 0.00 0.00
20260904070652 69 193 7.0 8.0 0.00 0.00 0.00
20260904070150 68 169 9.0 9.0 0.00 0.00 0.00
20260904065153 68 163 6.0 5.0 0.00 0.00 0.00
20260904064156 68 193 9.0 5.0 0.00 0.00 0.00
20260904063653 68 176 8.0 9.0 0.00 0.00 0.00
20260904063155 68 197 8.0 6.0 0.00 0.00 0.00
20260904062656 68 184 5.0 6.0 0.00 0.00 0.00
20260904062158 68 194 4.0 7.0 0.00 0.00 0.00
20260904061659 67 162 8.0 3.0 0.00 0.00 0.00
20260904060659 67 187 4.0 6.0 0.00 0.00 0.00
20260904060201 66 172 3.0 4.0 0.00 0.00 0.00
20260904055702 66 180 4.0 5.0 0.00 0.00 0.00
20260904055251 66 186 4.0 5.0 0.00 0.00 0.00
20260904055203 66 186 4.0 5.0 0.00 0.00 0.00
20260904054701 66 145 2.0 2.0 0.00 0.00 0.00
20260904053704 66 218 4.0 0.0 0.00 0.00 0.00
20260904053205 65 172 3.0 4.0 0.00 0.00 0.00
20260904052707 65 226 3.0 3.0 0.00 0.00 0.00
20260904052205 65 146 3.0 3.0 0.00 0.00 0.00
20260904051707 65 183 4.0 4.0 0.00 0.00 0.00
20260904050709 65 191 5.0 2.0 0.00 0.00 0.00
20260904050211 64 173 4.0 4.0 0.00 0.00 0.00
20260904045710 64 219 4.0 5.0 0.00 0.00 0.00
20260904045211 64 190 4.0 5.0 0.00 0.00 0.00
20260904044712 64 195 4.0 5.0 0.00 0.00 0.00
20260904044214 64 211 5.0 6.0 0.00 0.00 0.00
20260904043715 64 190 6.0 6.0 0.00 0.00 0.00
20260904043213 64 181 7.0 7.0 0.00 0.00 0.00
20260904042714 64 191 5.0 3.0 0.00 0.00 0.00
20260904042216 64 205 4.0 3.0 0.00 0.00 0.00
20260904041717 64 183 6.0 7.0 0.00 0.00 0.00
20260904041218 64 205 6.0 7.0 0.00 0.00 0.00
20260904040717 64 187 5.0 8.0 0.00 0.00 0.00
20260904040218 64 169 5.0 4.0 0.00 0.00 0.00
20260904035720 64 212 5.0 5.0 0.00 0.00 0.00
20260904035221 64 201 5.0 6.0 0.00 0.00 0.00
20260904034723 64 205 4.0 6.0 0.00 0.00 0.00
20260904034220 64 183 5.0 5.0 0.00 0.00 0.00
20260904033722 64 183 3.0 4.0 0.00 0.00 0.00
20260904033223 64 177 2.0 2.0 0.00 0.00 0.00
20260904032725 64 200 2.0 2.0 0.00 0.00 0.00
20260904032226 63 203 1.0 4.0 0.00 0.00 0.00
20260904031724 64 233 1.0 2.0 0.00 0.00 0.00
20260904031225 64 159 2.0 2.0 0.00 0.00 0.00
20260904030727 64 172 2.0 1.0 0.00 0.00 0.00
20260904030228 63 194 0.0 0.0 0.00 0.00 0.00
20260904025730 64 177 2.0 2.0 0.00 0.00 0.00
20260904025227 64 165 3.0 2.0 0.00 0.00 0.00
20260904024729 64 156 3.0 2.0 0.00 0.00 0.00
20260904024230 64 204 1.0 1.0 0.00 0.00 0.00
20260904023233 64 186 2.0 4.0 0.00 0.00 0.00
20260904022730 64 186 4.0 4.0 0.00 0.00 0.00
20260904022232 64 191 4.0 5.0 0.00 0.00 0.00
20260904021733 64 180 6.0 4.0 0.00 0.00 0.00
20260904021235 63 166 2.0 3.0 0.00 0.00 0.00
20260904020736 63 186 3.0 2.0 0.00 0.00 0.00
20260904020235 63 222 3.0 5.0 0.00 0.00 0.00
20260904015736 63 219 3.0 3.0 0.00 0.00 0.00
20260904015237 63 201 3.0 4.0 0.00 0.00 0.00
20260904014739 63 245 1.0 1.0 0.00 0.00 0.00
20260904014240 63 250 1.0 1.0 0.00 0.00 0.00
20260904013738 62 221 1.0 0.0 0.00 0.00 0.00
20260904013239 62 166 2.0 1.0 0.00 0.00 0.00
20260904012242 61 236 1.0 3.0 0.00 0.00 0.00
20260904011744 61 203 1.0 1.0 0.00 0.00 0.00
20260904011240 61 181 3.0 2.0 0.00 0.00 0.00
20260904010742 62 208 2.0 3.0 0.00 0.00 0.00
20260904010243 62 176 3.0 4.0 0.00 0.00 0.00
20260904005246 62 120 1.0 0.0 0.00 0.00 0.00
20260904004744 62 163 1.0 0.0 0.00 0.00 0.00
20260904003745 62 194 1.0 3.0 0.00 0.00 0.00
20260904003246 62 173 2.0 2.0 0.00 0.00 0.00
20260904002748 62 194 2.0 2.0 0.00 0.00 0.00
20260904001748 62 195 2.0 2.0 0.00 0.00 0.00
20260904001249 62 193 2.0 2.0 0.00 0.00 0.00
20260903235252 62 210 2.0 2.0 0.00 0.00 0.00
20260903234255 62 214 2.0 2.0 0.00 0.00 0.00
20260903233756 63 226 3.0 3.0 0.00 0.00 0.00
20260903233254 63 245 2.0 2.0 0.00 0.00 0.00
20260903232255 63 195 2.0 2.0 0.00 0.00 0.00
20260903231757 63 210 0.0 1.0 0.00 0.00 0.00
20260903231258 63 190 2.0 1.0 0.00 0.00 0.00
20260903230754 63 187 1.0 3.0 0.00 0.00 0.00
20260903230255 63 176 1.0 2.0 0.00 0.00 0.00
20260903225756 63 188 2.0 2.0 0.00 0.00 0.00
20260903225258 64 195 3.0 2.0 0.00 0.00 0.00
20260903223300 64 214 3.0 1.0 0.00 0.00 0.00
20260903222801 64 183 1.0 1.0 0.00 0.00 0.00